Flag for U.S.A. Weather past 2 weeks in Detroit, Michigan, U.S.A.

Now
36 °F

Sunny.


Feels Like: 28 °F
Forecast: 16 / 34 °F
Wind: 10 mph from Northwest

Location: Detroit City Airport

Current Time: Mar 4, 2015 at 3:56:54 PM

Latest Report: Mar 4, 2015 at 2:53 PM


Visibility: 10 mi

Pressure: 29.95 "Hg

Humidity: 42%

Dew point: 15 °F

Location of DetroitLocation

Historic Weather in Detroit — Graph

°F

Detroit temperature yesterday

Maximum temperature yesterday: 38 °F (at 7:53 PM)
Minimum temperature yesterday: 23 °F (at 7:53 AM)
Average temperature yesterday: 30 °F

Past Weeks' High & Low Weather Summary

 TemperatureHumidityPressure
High38 °F (Mar 3, 7:53 PM)87% (Feb 21, 8:53 PM)30.98 "Hg (Feb 21, 8:53 PM)
Low-9 °F (Feb 20, 6:53 AM)34% (Feb 27, 3:53 PM)28.11 "Hg (Mar 1, 1:53 PM)
Average16 °F61%30.20 "Hg
* Reported Feb 17 1:53 PM — Mar 4 1:53 PM, Detroit, Weather by CustomWeather, © 2015

Note: Actual official high and low records may vary slightly from our data, if they occured in-between our weather recording intervals... More about our weather records

Advertising

Detroit weather history for previous 24 hours

 ConditionsComfort  
Time TempWeatherWind HumidityBarometerVisibility
1:53 PM
Wed, Mar 4
36 °FScattered clouds.13 mph46%29.95 "Hg10 mi
12:53 PM36 °FPassing clouds.9 mph48%29.96 "Hg10 mi
11:53 AM35 °FScattered clouds.12 mph50%29.96 "Hg10 mi
10:53 AM35 °FOvercast.8 mph52%29.95 "Hg10 mi
9:53 AM34 °FOvercast.12 mph54%29.96 "Hg9 mi
8:53 AM33 °FOvercast.8 mph63%29.94 "Hg8 mi
7:53 AM33 °FOvercast.7 mph63%29.92 "Hg7 mi
6:53 AM32 °FOvercast.7 mph66%29.91 "Hg9 mi
5:53 AM32 °FOvercast.3 mph66%29.87 "Hg10 mi
4:53 AM32 °FOvercast.5 mph66%29.87 "Hg10 mi
3:53 AM33 °FOvercast.6 mph63%29.84 "Hg10 mi
2:53 AM33 °FOvercast.6 mph63%29.84 "Hg10 mi
1:53 AM35 °FOvercast.7 mph61%29.83 "Hg10 mi
12:53 AM36 °FMostly cloudy.8 mph67%29.79 "Hg10 mi
11:53 PM
Tue, Mar 3
35 °FOvercast.10 mph70%29.78 "Hg10 mi
10:53 PM37 °FOvercast.12 mph67%29.74 "Hg10 mi
9:53 PM37 °FOvercast.13 mph70%29.72 "Hg10 mi
8:53 PM38 °FMostly cloudy.16 mph73%29.69 "Hg10 mi
7:53 PM38 °FOvercast.12 mph76%29.65 "Hg10 mi
6:53 PM37 °FOvercast.13 mph82%29.62 "Hg7 mi
5:53 PM36 °FFog.15 mph85%29.60 "Hg3 mi
4:53 PM34 °FFog.12 mph85%29.62 "Hg1 mi
3:53 PM32 °FIce fog.15 mph85%29.62 "Hg3 mi
Weather by CustomWeather, © 2015

See weather overviewHow to use our weather pages